Location: Feigenhofen
(48.4939°N, 10.7793°E)
Time: 13:24:54
(UTC+00:00)

Cosmos 1603 - Visible Passes

Search period start: 26 September 2022 00:00
Search period end: 06 October 2022 00:00
Orbit: 832 x 858 km, 71.0° (Epoch: 25 September)

Date Brightness Start Highest point End Pass type
(mag) Time Alt. Az. Time Alt. Az. Time Alt. Az.
26 Sep 5.3 00:58:29 31° ENE 00:58:29 31° ENE 01:01:39 10° NE visible
26 Sep 4.5 02:40:22 36° NW 02:40:30 36° NW 02:45:43 10° NNE visible
26 Sep 5.8 04:25:01 10° NW 04:26:27 11° NNW 04:27:54 10° N visible
27 Sep 5.5 00:44:58 26° NE 00:44:58 26° NE 00:47:36 10° NE visible
27 Sep 4.6 02:26:52 36° NW 02:26:52 36° NW 02:31:42 10° NNE visible
27 Sep 5.8 04:10:48 10° NW 04:12:23 11° NNW 04:13:58 10° N visible
28 Sep 5.8 00:31:26 22° NE 00:31:26 22° NE 00:33:33 10° NE visible
28 Sep 4.7 02:13:20 35° NNW 02:13:20 35° NNW 02:17:42 10° NNE visible
28 Sep 5.8 03:56:36 10° NW 03:58:19 11° NNW 04:00:02 10° N visible
29 Sep 6.0 00:17:53 19° NE 00:17:53 19° NE 00:19:31 10° NE visible
29 Sep 4.9 01:59:47 33° NNW 01:59:47 33° NNW 02:03:40 10° NNE visible
29 Sep 5.8 03:42:24 10° NW 03:44:14 11° NNW 03:46:05 10° N visible
30 Sep 6.2 00:04:19 16° NE 00:04:19 16° NE 00:05:28 10° NE visible
30 Sep 5.1 01:46:12 31° NNW 01:46:12 31° NNW 01:49:40 10° NNE visible
30 Sep 5.8 03:28:13 10° NW 03:30:10 12° NNW 03:32:08 10° N visible
30 Sep 6.3 23:50:43 13° NE 23:50:43 13° NE 23:51:25 10° NE visible
01 Oct 5.3 01:32:37 28° N 01:32:37 28° N 01:35:39 10° NNE visible
01 Oct 5.8 03:14:30 11° NW 03:16:06 12° NNW 03:18:10 10° N visible
01 Oct 6.5 23:37:07 11° NE 23:37:07 11° NE 23:37:22 10° NE visible
02 Oct 5.5 01:19:00 25° N 01:19:00 25° N 01:21:38 10° NNE visible
02 Oct 5.8 03:00:53 11° NW 03:02:02 12° NNW 03:04:13 10° N visible
03 Oct 5.7 01:05:22 23° N 01:05:22 23° N 01:07:37 10° NNE visible
03 Oct 5.9 02:47:15 12° NW 02:47:58 12° NNW 02:50:15 10° N visible
04 Oct 5.9 00:51:44 20° N 00:51:44 20° N 00:53:36 10° NNE visible
04 Oct 5.9 02:33:37 12° NNW 02:33:54 13° NNW 02:36:17 10° N visible
05 Oct 6.1 00:38:05 18° NNE 00:38:05 18° NNE 00:39:35 10° NNE visible
05 Oct 5.9 02:19:58 13° NNW 02:19:58 13° NNW 02:22:19 10° N visible
